Natchez, MS

10:00 PM CST on November 13, 2019 (GMT -0600)
Hardy-Anders-Adams County

Weather History for KHEZ - September, 2019

Change the Weather History Date:

Friday, September 13, 2019

  Actual Average Record
Temperature  
Mean Temperature 83 °F -  
Max Temperature 96 °F 88 °F 97 °F (1972)
Min Temperature 70 °F 69 °F 47 °F (1940)
Cooling Degree Days 18    
Growing Degree Days 33 (Base 50)    
Moisture  
Dew Point 70 °F    
Average Humidity 67    
Maximum Humidity 97    
Minimum Humidity 34    
Precipitation  
Precipitation 0.00 in - - ()
Sea Level Pressure  
Sea Level Pressure 30.10 in    
Wind  
Wind Speed 3 mph (NE)    
Max Wind Speed 13 mph    
Max Gust Speed 17 mph    
Visibility 10 miles    
Events      
Averages and records for this station are not official NWS values.
T = Trace of Precipitation, MM = Missing Value Source: NWS Daily Summary

Daily Weather History Graph

Daily Weather History Graph

Search for Another Location

Airport or City:

Astronomy

Sep. 13, 2019 Rise Set
Actual Time 6:47 AM CDT 7:13 PM CDT
Civil Twilight 6:23 AM CDT 7:38 PM CDT
Nautical Twilight 5:54 AM CDT 8:06 PM CDT
Astronomical Twilight 5:25 AM CDT 8:35 PM CDT
Moon 7:23 PM CDT (9/13) 6:11 AM CDT (9/13)
Length of Visible Light 13h 14m
Length of Day
12h 25m
Full, 100% of the Moon is Illuminated
Sep 13
Full
Sep 13
Full
Sep 21
Last Quarter
Sep 28
New
Oct 5
First Quarter

Hourly Weather History & Observations

Time (CDT) Temp. Heat Index Dew Point Humidity Pressure Visibility Wind Dir Wind Speed Gust Speed Precip Events Conditions
12:56 AM 73.0 °F - 71.1 °F 93% 30.10 in 10.0 mi Calm Calm - N/A   Clear
1:56 AM 73.0 °F - 71.1 °F 93% 30.10 in 10.0 mi Calm Calm - N/A   Clear
2:56 AM 73.0 °F - 70.0 °F 90% 30.09 in 10.0 mi Calm Calm - N/A   Clear
3:56 AM 71.1 °F - 70.0 °F 96% 30.09 in 10.0 mi Calm Calm - N/A   Clear
4:56 AM 71.1 °F - 69.1 °F 93% 30.10 in 10.0 mi Calm Calm - N/A   Clear
5:56 AM 70.0 °F - 69.1 °F 97% 30.11 in 10.0 mi Calm Calm - N/A   Clear
6:56 AM 70.0 °F - 69.1 °F 97% 30.12 in 9.0 mi Calm Calm - N/A   Clear
7:56 AM 72.0 °F - 70.0 °F 93% 30.13 in 8.0 mi NNE 3.5 mph - N/A   Clear
8:56 AM 80.1 °F 84.2 °F 73.0 °F 79% 30.14 in 10.0 mi ENE 4.6 mph - N/A   Clear
9:56 AM 84.9 °F 90.1 °F 71.1 °F 63% 30.15 in 10.0 mi ENE 6.9 mph - N/A   Clear
10:56 AM 89.1 °F 96.0 °F 72.0 °F 57% 30.15 in 10.0 mi ENE 6.9 mph - N/A   Clear
11:56 AM 91.9 °F 100.7 °F 73.0 °F 54% 30.14 in 10.0 mi Variable 5.8 mph - N/A   Clear
12:56 PM 93.0 °F 97.9 °F 69.1 °F 45% 30.13 in 10.0 mi Variable 5.8 mph - N/A   Partly Cloudy
1:49 PM 93.2 °F 96.2 °F 66.2 °F 41% 30.11 in 10.0 mi Variable 4.6 mph - N/A   Scattered Clouds
1:56 PM 95.0 °F 99.5 °F 68.0 °F 41% 30.10 in 10.0 mi ENE 12.7 mph 17.3 mph N/A   Scattered Clouds
2:56 PM 93.9 °F 98.6 °F 68.0 °F 43% 30.08 in 10.0 mi NE 10.4 mph - N/A   Scattered Clouds
3:29 PM 96.8 °F 101.8 °F 68.0 °F 39% 30.08 in 10.0 mi NE 9.2 mph - N/A   Scattered Clouds
3:56 PM 93.9 °F 96.1 °F 64.9 °F 38% 30.06 in 10.0 mi NNE 9.2 mph - N/A   Mostly Cloudy
4:33 PM 96.8 °F 99.0 °F 64.4 °F 34% 30.06 in 10.0 mi NE 8.1 mph - N/A   Scattered Clouds
4:56 PM 96.1 °F 98.3 °F 64.0 °F 35% 30.05 in 10.0 mi NE 9.2 mph - N/A   Scattered Clouds
5:56 PM 93.0 °F 95.9 °F 66.0 °F 41% 30.05 in 10.0 mi NNE 5.8 mph - N/A   Scattered Clouds
6:56 PM 84.9 °F 90.7 °F 72.0 °F 65% 30.06 in 10.0 mi Calm Calm - N/A   Clear
7:56 PM 81.0 °F 84.9 °F 71.1 °F 72% 30.06 in 10.0 mi Calm Calm - N/A   Clear
8:56 PM 78.1 °F - 72.0 °F 81% 30.08 in 10.0 mi Calm Calm - N/A   Overcast
9:56 PM 78.1 °F - 73.0 °F 84% 30.09 in 10.0 mi Calm Calm - N/A   Overcast
10:56 PM 79.0 °F - 71.1 °F 77% 30.10 in 10.0 mi ENE 3.5 mph - N/A   Overcast
11:56 PM 80.1 °F 83.8 °F 72.0 °F 76% 30.09 in 10.0 mi East 3.5 mph - N/A   Scattered Clouds